Погода в Кубринске

Россия / Ярославская область     56°43′01″N   38°21′50″E
темп.,
°C
ветер,
м/с
пор.,
м/с
влажн.,
%
обл.,
%
осадки,
мм/ч
давл.,
гПа
погр.,
м
31 июля, сб
сб3100:00+16зюз24965 0.1 100377
03:00+15зюз269713 0.1 1003143
06:00+16юз28953 0.3 1003236
09:00+21зюз486212 0.3 1003575
12:00+25зюз6103861 0.0 10032669
15:00+25зюз6103753 0.0 10032528
18:00+23з41048100 0.0 10051660
21:00+21зюз410543 0.0 1006683
1 августа, вс
вс100:00+15юз29772 0.0 1007187
03:00+14юз39844 0.0 1009208
06:00+15юз2782100 0.0 1010175
09:00+22юз3656100 0.0 1010559
12:00+24юз4748100 0.0 10101110
15:00+17ююв2897100 2.1 1010271
18:00+20ю2891100 1.5 1008368
21:00+18ю399699 1.6 1009258
2 августа, пн
пн200:00+17ююз299678 0.3 1009165
03:00+16юз259710 0.3 1009103
06:00+17ююз2395100 0.0 101080
09:00+20ю2589100 0.0 1009281
12:00+19вюв349788 1.4 1008164
15:00+26юв386496 1.4 1004676
18:00+27ю4953100 0.0 10021171
21:00+22ююв3107899 0.4 1002284
3 августа, вт
вт300:00+17ююз249613 1.6 100290
03:00+16ююз3109698 1.6 1002314
06:00+16з2598100 0.1 1002340
09:00+17з239057 0.6 1004480
12:00+20з3466100 0.1 10051158
15:00+16з3888100 0.2 1007487
18:00+17юз259010 1.0 1007324
21:00+15ююз2393100 1.4 100863
4 августа, ср
ср400:00+13зюз27951 0.0 1009128
03:00+12зюз26963 0.0 1010118
06:00+13зюз27941 0.0 1012206
09:00+18з35700 0.0 1013706
12:00+21зсз454626 0.1 10131717
15:00+23зсз45345 0.1 10142255
18:00+22зсз24415 0.0 10141136
21:00+16зсз115999 0.0 101611